Location: Brookfield Village
(37.7352°N, 122.1861°W)
Time: 05:54:53
(UTC+00:00)

COSMOS 2428 - Pass Details

Date: 03 August 2024
Orbit: 842 x 857 km, 70.9° (Epoch: 14 September)

Event Time Altitude Azimuth Distance (km) Brightness Sun altitude
Exits shadow 12:05:20 18° 234° (SW) 1,963 3.9 -12.9°
Maximum altitude 12:09:12 43° 298° (WNW) 1,180 3.3 -12.2°
Drops below altitude 10° 12:14:36 10° 9° (N) 2,479 5.8 -11.3°
Sets 12:17:12 0° 16° (NNE) 3,420 6.7 -10.9°
